Location: Bailleul
(50.3375°N, 2.8513°E)
Time: 19:57:21
(UTC+00:00)

Cosmos 1953 Rocket - Pass Details

Date: 19 April 2021
Orbit: 603 x 636 km, 82.5° (Epoch: 17 May)

Event Time Altitude Azimuth Distance (km) Brightness Sun altitude
Rises 19:12:20 0° 350° (N) 2,898 7.5 -4.2°
Reaches altitude 10° 19:14:35 10° 351° (N) 1,982 6.7 -4.5°
Maximum altitude 19:18:59 85° 80° (E) 618 3.6 -5.2°
Drops below altitude 10° 19:23:18 10° 169° (S) 1,951 5.8 -5.8°
Sets 19:25:30 0° 170° (S) 2,847 6.6 -6.1°
